Погода Казалы

Погода Казалы : погода сейчас, прогноз погоды и архив. Всё, что Вы хотите узнать о погоде Казалы!

Хотите узнать прогноз погоды Казалы? Тогда Вам сюда: Погода Казалы

Поиск расширенной информации на нашем сайте:

Другие новости

Новости СМИ2

Главная страница сайта

Новости сайта

03.07.2017

Напоминаем, что на нашем специализированном сайте Метеоцентр.Азия вы можете получить высокодетализированные автоматические прогнозы погоды по пунктам России, СНГ и мира в авиационном формате (включающие направление и скорость ветра, видимость, явления погоды, количество и форму облачности, нижнюю и верхнюю границу облачности).


Погода Казалы - сегодня

Время (UTC), дата Ветер
(°,м/с) 
Видим.   Явления Облачность Т
(°С)
Тd
(°С)
f(%) Тe
(°С)
Pmin
(гПа)
dP
(гПа)
Po
(мм)
O2
(г/м3)
Тmin Tmax R s Состояние
почвы
09 15.06.18 тихо ()   20000 м    ясно 
+30.8 +1.1 15 +31  1013.9  -0.5  755  273           
12 15.06.18 320 (СЗ) 20000 м    ясно 
+32.1 +1.7 14 +32  1013.1  -0.6  754  272           
15 15.06.18 тихо ()   20000 м    ясно 
+30.7 +9.7 27 +31  1012.8  -0.5  754  271    +32.1       
18 15.06.18 тихо ()   20000 м    ясно 
+19.9 +9.2 50 +20  1012.8  -0.1  754  281    +32.1       
21 15.06.18 270 (З) 20000 м    ясно 
+18.4 +8.4 52 +20  1012.2  -0.6  753  283           
00 16.06.18 270 (З) 20000 м    ясно 
+16.7 +7.8 56 +18  1012  -0.2  753  285           
06 16.06.18 200 (Ю) 20000 м    ясно 
+31.3 +5.5 20 +31  1011.6  -0.5  753  271  +16.7         
09 16.06.18 200 (Ю) 20000 м    ясно 
+33.4 +4 16 +33  1009.7  -1.8  752  269           
12 16.06.18 200 (Ю) 20000 м    ясно 
+33.9 +4.8 16 +34  1008.3  -1.4  751  268           
15 16.06.18 тихо ()   20000 м    ясно 
+30.6 +12.3 33 +35  1006.8  -1.6  749  269    +34.1       
18 16.06.18 тихо ()   20000 м    ясно 
+22 +8.4 42 +22  1005.8  -1.1  749  278    +34.1       
21 16.06.18 180 (Ю) 20000 м    ясно 
+19.1 +8.5 50 +21  1004.8  -1.1  748  280           
00 17.06.18 тихо ()   20000 м    ясно 
+16.6 +8.6 59 +17  1004.5  -0.3  747  282           
03 17.06.18 тихо ()   20000 м    ясно 
+22.9 +12.2 51 +27  1003.9  -0.5  747  275           
06 17.06.18 320 (СЗ) 20000 м    3/0 верхняя 
[Ci fib]
+31.1 +6.7 22 +31  1003.2  -0.6  747  269  +15.2         
09 17.06.18 320 (СЗ) 20000 м    6/0 верхняя 
[Ci sp]
+32.6 +6.1 19 +33  1001.5  -1.5  746  267           
12 17.06.18 320 (СЗ) 20000 м    6/0 верхняя 
[Ci sp]
+33.9 +2.5 14 +34  1000.2  -1.3  745  266           
15 17.06.18 020 (С) 20000 м    3/0 средняя 
[Ac trans]
+27.8 +7 27 +28  1001.1  0.8  745  271    +34       
18 17.06.18 020 (С) 20000 м    ясно 
+23.3 +8.2 38 +23  1002.5  1.3  746  276    +34       
21 17.06.18 тихо ()   20000 м    ясно 
+19.6 +7.3 45 +20  1002.7  746  279           
00 18.06.18 360 (С) 20000 м    3/0 средняя 
[Ac trans]
+17 +6.7 51 +18  1002.9  0.2  746  282           
03 18.06.18 360 (С) 20000 м    ясно 
+19.4 +5.3 40 +21  1003.8  0.9  747  280           
06 18.06.18 340 (С) 20000 м    ясно 
+25.6 +4.6 26 +26  1004  0.3  747  275  +15.9         
09 18.06.18 320 (СЗ) 20000 м    ясно 
+27.3 +2.5 20 +27  1004.1  0.2  747  273           
12 18.06.18 340 (С) 20000 м    ясно 
+27.4 +2.7 20 +27  1004.2  0.1  747  273           
Время (UTC), дата Ветер
(°,м/с) 
Видим.   Явления Облачность Т
(°С)
Тd
(°С)
f(%) Тe
(°С)
Pmin
(гПа)
dP
(гПа)
Po
(мм)
O2
(г/м3)
Тmin Tmax R s Состояние
почвы

Для получения пояснительной информации подведите курсор к названию столбца.

ПОГОДА Казалы - архив

Всё, что Вы хотите узнать о погоде Казалы - удобно и подробно!

Выберите нужную дату (начиная с 1 января 2015* года) и нажмите кнопку "Найти".
Будут отображены архивные сводки погоды по пункту Казалы, начиная с указанной даты.


Отображать данные в формате CSV (для использования в таблицах Excel)


Внимание! Наш архив погоды предназначен исключительно для личного некоммерческого использования в познавательных целях. Если Вам необходимы официальные справки о состоянии погоды (для производственных, юридических, коммерческих и т.п. целей), обращайтесь в органы Росгидромета.

*Примечание: данная дата относится к архиву по метеостанциям СССР (Россия, СНГ, Балтия).
Архив по метеостанциям Зарубежной Европы и Азии (кроме Китая) хранится 10 дней, по другим регионам земного шара (Китай, Африка, Америка, Австралия, Океания) - 1 день.

Казалы - район местоположения метеостанции


Название, широта, долгота, высота метеостанции:
Казалы (Казалинск) 45.8°ш. 62.1°д. 68 м над ур. моря [Казахстан]

Дополнительная информация

В oтличие oт бoльшинства пoгoдных сайтoв мы публикуем пoдрoбную метеoинфoрмацию в детальнoм прoфессиoнальнoм фoрмате.

Характеристики температуры и влажнoсти вoздуха измеряются на высoте 2 м в тени вдали oт зданий и деревьев.
Скoрoсть ветра измеряется на высoте 10 м (на урoвне рoста челoвека скoрoсть ветра ниже в 1.5-2 раза). Если метеoстанция нахoдится в гoрoде или в лесу, тo скoрoсть ветра занижена на 2-4 м/с пo сравнению с oткрытым местoм. Скoрoсть ветра над акватoриями крупных рек и oзёр, а также на вершинах хoлмoв на 2-5 м/с выше, чем в oбычных услoвиях.
Атмoсфернoе давление в разных тoчках местнoсти мoжет значительнo oтличаться oт давления на метеoстанции, в зависимoсти oт услoвий рельефа (при пoдъёме на 10 м давление пoнижается примернo на 1 мм рт.ст.).